Tracking 29892 objects as of 21-Nov-2024
HD Live streaming from Space Station
objects crossing your sky now

ORBASTRO-AF 1

Track ORBASTRO-AF 1 now!
10-day predictions


NORAD ID: 56179
Int'l Code: 2023-054B
Perigee: 447.9 km
Apogee: 456.1 km
Inclination: 97.3 °
Period: 93.5 minutes
Semi major axis: 6823 km
RCS: Unknown
Launch date: April 15, 2023
Source: United Kingdom (UK)
Launch site: AIR FORCE WESTERN TEST RANGE (AFWTR)
Your satellite tracking list
Your tracking list is empty




NASA's NSSDC Master Catalog

Two Line Element Set (TLE):
1 56179U 23054B   24326.07935363  .00030698  00000-0  75852-3 0  9991
2 56179  97.3405 220.8092 0006042  12.3109 347.8284 15.40417297 90059
Source of the keplerian elements: AFSPC